K1WJY Weather Reports


time (UTC)temp
F
wind
direction
speed
knots
gust
knots
rain 1hr
in
rain 24hr
in
rain mn
in
humidity
%
barometer
mb
20260505140217 60 137 5.2 7.0 0.00 0.00 0.00 74 1011.6
20260505130141 57 151 1.7 2.6 0.00 0.00 0.00 80 1011.7
20260505124631 57 258 2.6 2.6 0.00 0.00 0.00 79 1011.7
20260505124127 56 55 0.0 0.0 0.00 0.00 0.00 81 1011.7
20260505123623 55 243 2.6 2.6 0.00 0.00 0.00 80 1011.7
20260505123120 55 268 2.6 2.6 0.00 0.00 0.00 81 1011.9
20260505122617 55 204 4.3 5.2 0.00 0.00 0.00 81 1011.7
20260505122114 55 179 1.7 1.7 0.00 0.00 0.00 82 1011.7
20260505121610 55 158 2.6 5.2 0.00 0.00 0.00 81 1011.8
20260505121107 55 119 2.6 4.3 0.00 0.00 0.00 82 1011.8
20260505120604 55 199 3.5 4.3 0.00 0.00 0.00 81 1011.7
20260505120100 54 183 1.7 2.6 0.00 0.00 0.00 83 1011.7
20260505115554 54 280 0.9 0.9 0.00 0.00 0.00 83 1011.7
20260505115052 53 171 3.5 4.3 0.00 0.00 0.00 83 1011.7
20260505114549 53 199 7.0 8.7 0.00 0.00 0.00 83 1011.8
20260505114045 53 238 2.6 2.6 0.00 0.00 0.00 85 1011.7
20260505113541 53 176 5.2 6.1 0.00 0.00 0.00 85 1011.7
20260505113038 52 155 3.5 5.2 0.00 0.00 0.00 85 1011.6
20260505112534 52 203 2.6 2.6 0.00 0.00 0.00 86 1011.5
20260505112033 52 182 3.5 4.3 0.00 0.00 0.00 86 1011.6
20260505111526 52 198 0.9 2.6 0.00 0.00 0.00 87 1011.6
20260505111023 51 199 2.6 2.6 0.00 0.00 0.00 87 1011.6
20260505110519 51 280 1.7 1.7 0.00 0.00 0.00 87 1011.8
20260505101951 48 185 1.7 1.7 0.00 0.00 0.00 93 1011.7
20260505101449 47 331 0.9 1.7 0.00 0.00 0.00 94 1011.5
20260505100946 47 323 0.0 0.0 0.00 0.00 0.00 94 1011.5
20260505100443 47 191 0.9 0.9 0.00 0.00 0.00 94 1011.5
20260505095939 47 205 0.0 0.9 0.00 0.00 0.00 94 1011.4
20260505095436 47 150 0.0 0.9 0.00 0.00 0.00 94 1011.3
20260505094932 47 206 0.9 1.7 0.00 0.00 0.00 94 1011.5
20260505094429 47 231 1.7 2.6 0.00 0.00 0.00 94 1011.2
20260505093925 47 154 0.9 0.9 0.00 0.00 0.00 94 1011.3
20260505093422 47 211 0.0 0.9 0.00 0.00 0.00 94 1011.3
20260505092919 46 237 0.9 1.7 0.00 0.00 0.00 94 1011.0
20260505092417 46 182 1.7 2.6 0.00 0.00 0.00 94 1011.2
20260505091914 46 240 0.9 0.9 0.00 0.00 0.00 94 1011.3
20260505091412 46 208 2.6 2.6 0.00 0.00 0.00 95 1011.4
20260505090910 46 224 0.0 0.9 0.00 0.00 0.00 94 1011.4
20260505090408 46 240 0.9 0.9 0.00 0.00 0.00 94 1011.5
20260505085905 46 191 1.7 1.7 0.00 0.00 0.00 95 1011.2
20260505085403 46 156 0.0 0.9 0.00 0.00 0.00 95 1011.2
20260505084901 46 189 2.6 2.6 0.00 0.00 0.00 95 1011.2
20260505084359 46 134 0.0 0.0 0.00 0.00 0.00 95 1011.0
20260505083856 46 319 0.0 0.0 0.00 0.00 0.00 95 1011.2
20260505083354 46 258 0.0 0.0 0.00 0.00 0.00 94 1011.3
20260505082849 46 214 0.9 0.9 0.00 0.00 0.00 94 1011.0
20260505082346 46 14 0.0 0.0 0.00 0.00 0.00 94 1011.3
20260505081842 46 228 0.0 0.0 0.00 0.00 0.00 94 1011.2
20260505081339 46 173 0.0 0.0 0.00 0.00 0.00 94 1011.1
20260505080836 46 294 0.0 0.0 0.00 0.00 0.00 93 1011.3
20260505080332 47 311 0.0 0.9 0.00 0.00 0.00 93 1011.1
20260505075827 47 211 0.0 0.0 0.00 0.00 0.00 93 1011.2
20260505075325 47 278 0.0 0.0 0.00 0.00 0.00 93 1011.3
20260505074822 47 261 0.0 0.0 0.00 0.00 0.00 93 1011.0
20260505074319 47 305 0.0 0.0 0.00 0.00 0.00 93 1011.3
20260505073816 47 306 0.0 0.0 0.00 0.00 0.00 93 1011.2
20260505073314 46 193 1.7 1.7 0.00 0.00 0.00 93 1011.1
20260505072811 46 245 0.0 0.0 0.00 0.00 0.00 93 1011.2
20260505072307 47 138 0.0 0.0 0.00 0.00 0.00 93 1011.3
20260505071803 47 187 1.7 1.7 0.00 0.00 0.00 93 1011.3
20260505071300 47 36 0.0 0.0 0.00 0.00 0.00 93 1011.1
20260505070758 47 290 0.0 0.0 0.00 0.00 0.00 92 1011.2
20260505070254 47 302 0.0 0.0 0.00 0.00 0.00 92 1011.1
20260505065749 47 220 0.0 0.0 0.00 0.00 0.00 92 1011.1
20260505065246 47 43 0.0 0.0 0.00 0.00 0.00 92 1011.0
20260505064743 47 208 0.0 0.9 0.00 0.00 0.00 92 1010.8
20260505064241 47 349 0.0 0.0 0.00 0.00 0.00 93 1010.9
20260505063738 47 152 0.0 0.0 0.00 0.00 0.00 93 1011.0
20260505063234 47 305 0.0 0.0 0.00 0.00 0.00 92 1010.9
20260505062731 47 200 0.9 1.7 0.00 0.00 0.00 92 1010.9
20260505062229 47 330 0.0 0.0 0.00 0.00 0.00 93 1010.7
20260505061725 47 15 0.0 0.0 0.00 0.00 0.00 92 1011.1
20260505061223 47 124 0.0 0.0 0.00 0.00 0.00 93 1010.8
20260505060720 46 127 0.0 0.0 0.00 0.00 0.00 93 1010.7
20260505060217 46 21 0.0 0.0 0.00 0.00 0.00 94 1010.9
20260505055713 46 294 0.0 0.0 0.00 0.00 0.00 94 1010.8
20260505055209 46 335 0.0 0.0 0.00 0.00 0.00 95 1010.9
20260505054707 45 304 0.0 0.0 0.00 0.00 0.00 96 1010.9
20260505054204 45 261 0.0 0.0 0.00 0.00 0.00 97 1010.9
20260505053702 45 333 0.0 0.0 0.00 0.00 0.00 97 1010.8
20260505053158 44 345 0.0 0.0 0.00 0.00 0.00 97 1010.8
20260505052655 44 329 0.0 0.0 0.00 0.00 0.00 97 1010.7
20260505052153 44 333 0.0 0.0 0.00 0.00 0.00 97 1010.7
20260505051649 44 339 0.0 0.0 0.00 0.00 0.00 97 1010.8
20260505051147 44 341 0.0 0.0 0.00 0.00 0.00 96 1010.6
20260505050645 45 0 0.0 0.0 0.00 0.00 0.00 95 1010.4
20260505050143 45 359 0.0 0.0 0.00 0.00 0.00 95 1010.6
20260505041613 45 328 0.0 0.0 0.00 0.00 0.00 95 1010.7
20260505041110 46 323 0.0 0.0 0.00 0.00 0.00 94 1010.8
20260505040607 46 342 0.0 0.0 0.00 0.00 0.00 93 1010.5
20260505040104 46 237 0.0 0.0 0.00 0.00 0.00 94 1010.6
20260505035601 46 159 0.0 0.0 0.00 0.01 0.01 95 1010.6
20260505035057 45 32 0.0 0.0 0.00 0.01 0.01 97 1010.6
20260505034554 44 134 0.9 1.7 0.00 0.01 0.01 99 1010.4
20260505034050 44 250 0.0 0.0 0.00 0.01 0.01 98 1010.4
20260505033547 44 358 0.0 0.0 0.00 0.01 0.01 97 1010.4
20260505033046 44 35 0.0 0.0 0.00 0.01 0.01 96 1010.5
20260505032544 45 15 0.0 0.0 0.00 0.01 0.01 96 1010.5
20260505032039 45 14 0.0 0.0 0.00 0.01 0.01 95 1010.6
20260505031537 45 15 0.0 0.0 0.00 0.01 0.01 94 1010.9
20260505031033 46 15 0.0 0.0 0.00 0.01 0.01 94 1010.6
20260505030530 46 14 0.0 0.0 0.00 0.01 0.01 92 1010.7
20260505030026 46 14 0.0 0.0 0.00 0.01 0.01 92 1010.7
20260505025522 47 40 0.0 0.0 0.00 0.01 0.01 91 1010.6
20260505025021 47 53 0.0 0.0 0.00 0.01 0.01 91 1010.7
20260505024518 47 23 0.0 0.0 0.00 0.01 0.01 89 1010.9
20260505024015 48 25 0.0 0.0 0.00 0.01 0.01 89 1010.9
20260505023512 48 9 0.0 0.0 0.00 0.01 0.01 88 1010.7
20260505023010 48 10 0.0 0.0 0.00 0.01 0.01 88 1010.6
20260505022507 48 158 0.0 0.0 0.00 0.01 0.01 87 1010.7
20260505022004 48 170 0.0 0.0 0.00 0.01 0.01 87 1010.7
20260505021500 48 151 0.0 0.0 0.00 0.01 0.01 87 1010.8
20260505020956 48 153 0.0 0.0 0.00 0.01 0.01 87 1010.7
20260505020451 48 277 0.0 0.0 0.00 0.01 0.01 87 1010.7
20260505015948 48 129 0.0 0.9 0.00 0.01 0.01 86 1010.5
20260505015446 48 170 0.0 0.9 0.00 0.01 0.01 86 1010.5
20260505014943 48 159 0.0 0.0 0.00 0.01 0.01 85 1010.6
20260505014440 48 170 2.6 2.6 0.00 0.01 0.01 86 1010.7
20260505013937 48 214 0.0 0.9 0.00 0.01 0.01 87 1010.5
20260505013434 49 89 0.0 0.0 0.00 0.01 0.01 85 1010.4
20260505012931 49 75 0.0 0.0 0.00 0.01 0.01 85 1010.4
20260505012429 49 120 0.9 0.9 0.00 0.01 0.01 84 1010.5
20260505011926 49 23 0.0 0.0 0.00 0.01 0.01 83 1010.3
20260505011422 50 205 0.0 0.0 0.00 0.01 0.01 83 1010.3
20260505010919 50 222 0.0 0.0 0.00 0.01 0.01 82 1010.2
20260505010414 50 291 0.9 1.7 0.00 0.01 0.01 82 1010.1
20260505005910 50 101 0.0 0.0 0.00 0.01 0.01 82 1010.2
20260505005408 50 174 0.9 1.7 0.00 0.01 0.01 81 1010.1
20260505004905 50 91 1.7 1.7 0.00 0.01 0.01 81 1010.0
20260505004401 51 106 0.0 0.0 0.00 0.01 0.01 81 1009.9
20260505003859 51 192 0.0 0.0 0.00 0.01 0.01 81 1010.0
20260505003356 51 138 0.9 0.9 0.00 0.01 0.01 81 1009.9
20260505002852 51 46 0.0 0.0 0.00 0.01 0.01 84 1009.7
20260505002349 52 93 0.0 0.0 0.00 0.01 0.01 82 1009.6
20260505001847 52 203 1.7 1.7 0.00 0.01 0.01 81 1009.7
20260505001344 52 172 0.0 0.0 0.00 0.01 0.01 82 1009.5
20260505000841 52 82 0.9 1.7 0.00 0.01 0.01 84 1009.5
20260505000339 52 44 0.0 0.0 0.00 0.01 0.01 87 1009.1
20260504235835 52 120 2.6 2.6 0.00 0.01 0.01 83 1009.2
20260504235332 52 223 0.0 0.0 0.00 0.01 0.01 83 1008.9
20260504234829 53 82 0.0 0.0 0.00 0.01 0.01 82 1008.9
20260504234327 53 85 0.0 0.0 0.00 0.01 0.01 81 1008.7
20260504233823 54 177 0.0 0.0 0.00 0.01 0.01 79 1008.7
20260504233319 55 130 0.0 0.0 0.00 0.01 0.01 76 1008.8
20260504232815 55 233 0.0 0.0 0.00 0.01 0.01 78 1008.5
20260504232313 56 278 0.0 0.0 0.00 0.01 0.01 76 1008.5
20260504231810 56 243 0.0 0.0 0.00 0.01 0.01 73 1008.5
20260504231306 57 190 0.0 0.0 0.00 0.01 0.01 72 1008.4
20260504230802 58 333 0.0 0.0 0.00 0.01 0.01 71 1008.5
20260504230300 58 264 0.0 0.0 0.00 0.01 0.01 70 1008.3
20260504225759 59 227 0.0 0.0 0.00 0.01 0.01 68 1008.0
20260504225254 60 125 0.0 0.0 0.00 0.01 0.01 69 1008.1
20260504224752 60 211 0.0 0.0 0.00 0.01 0.01 67 1008.0
20260504224249 60 213 0.9 0.9 0.00 0.01 0.01 67 1008.1
20260504223745 60 254 0.0 0.0 0.00 0.01 0.01 68 1008.0
20260504223241 60 157 1.7 1.7 0.00 0.01 0.01 67 1007.9
20260504222738 61 190 2.6 4.3 0.00 0.01 0.01 66 1007.9
20260504222235 61 221 0.9 0.9 0.00 0.01 0.01 66 1008.0
20260504221733 61 185 4.3 6.1 0.00 0.01 0.01 66 1007.9
20260504221229 61 286 0.0 0.0 0.00 0.01 0.01 68 1008.0
20260504220726 63 216 2.6 2.6 0.00 0.01 0.01 64 1007.6
20260504220223 63 200 1.7 2.6 0.00 0.01 0.01 63 1007.6
20260504215720 63 3 0.9 0.9 0.00 0.01 0.01 62 1007.6
20260504215217 63 227 1.7 1.7 0.00 0.01 0.01 62 1007.8
20260504214713 63 245 1.7 1.7 0.00 0.01 0.01 63 1007.6
20260504214210 63 281 0.0 0.0 0.00 0.01 0.01 63 1007.6
20260504213706 63 308 4.3 5.2 0.00 0.01 0.01 62 1007.6
20260504213203 63 187 2.6 4.3 0.00 0.01 0.01 62 1007.7
20260504212700 62 309 1.7 2.6 0.00 0.01 0.01 62 1007.6
20260504212156 63 291 0.0 0.9 0.00 0.01 0.01 64 1007.7
20260504211654 63 305 0.9 0.9 0.00 0.01 0.01 63 1007.7
20260504211150 62 273 6.1 8.7 0.00 0.01 0.01 63 1007.5
20260504210648 62 314 2.6 4.3 0.00 0.01 0.01 63 1007.5
20260504210144 62 247 5.2 7.0 0.00 0.01 0.01 63 1007.5
20260504205641 62 245 0.0 0.9 0.00 0.01 0.01 65 1007.5
20260504205138 62 268 1.7 1.7 0.00 0.01 0.01 65 1007.4
20260504204637 61 251 0.9 0.9 0.00 0.01 0.01 67 1007.5
20260504204136 60 308 4.3 5.2 0.00 0.01 0.01 67 1007.9
20260504203634 62 312 7.8 9.6 0.00 0.01 0.01 64 1007.6
20260504203131 62 282 0.0 0.9 0.00 0.01 0.01 68 1007.5
20260504202631 61 310 2.6 4.3 0.00 0.01 0.01 65 1007.5
20260504202129 62 232 3.5 4.3 0.00 0.01 0.01 65 1007.5
20260504201625 61 207 0.0 0.0 0.00 0.01 0.01 67 1007.4
20260504201123 61 322 2.6 4.3 0.00 0.01 0.01 67 1007.7
20260504200620 62 275 0.0 0.0 0.00 0.01 0.01 66 1007.3
20260504200116 62 293 1.7 1.7 0.00 0.01 0.01 68 1007.3
20260504195613 61 206 2.6 2.6 0.00 0.01 0.01 68 1007.4
20260504195109 60 323 2.6 4.3 0.00 0.01 0.01 68 1007.5
20260504194606 59 280 1.7 1.7 0.00 0.01 0.01 72 1007.5
20260504194101 59 256 3.5 6.1 0.00 0.01 0.01 72 1007.5
20260504193558 59 180 1.7 1.7 0.00 0.01 0.01 74 1007.6
20260504193057 57 278 0.9 1.7 0.00 0.01 0.01 74 1007.9
20260504192555 58 237 3.5 5.2 0.00 0.01 0.01 74 1007.8
20260504192052 55 296 1.7 1.7 0.00 0.01 0.01 79 1007.9
20260504191550 55 274 3.5 4.3 0.00 0.01 0.01 79 1007.8
20260504191046 55 257 1.7 1.7 0.00 0.01 0.01 81 1008.0
20260504190542 54 154 2.6 2.6 0.00 0.01 0.01 82 1008.1
20260504190039 54 190 4.3 5.2 0.00 0.01 0.01 82 1007.9
20260504185536 53 201 2.6 2.6 0.00 0.01 0.01 85 1007.8
20260504185032 53 129 0.9 1.7 0.00 0.01 0.01 83 1008.3
20260504184528 53 259 0.0 0.0 0.00 0.01 0.01 85 1008.5
20260504184023 53 189 1.7 2.6 0.00 0.01 0.01 84 1008.6
20260504183521 53 303 0.9 0.9 0.00 0.01 0.01 82 1008.5
20260504183019 53 281 2.6 2.6 0.07 0.01 0.01 82 1008.5
20260504182515 53 317 0.0 0.0 0.07 0.01 0.01 81 1008.5
20260504182013 54 252 2.6 2.6 0.00 0.00 0.00 79 1008.6
20260504181509 54 206 0.9 1.7 0.00 0.00 0.00 76 1008.4
20260504181008 54 246 0.0 0.9 0.00 0.00 0.00 77 1008.5
20260504180507 54 183 2.6 2.6 0.00 0.00 0.00 74 1008.4
20260504180005 54 297 2.6 2.6 0.00 0.00 0.00 75 1008.3
20260504175502 53 252 0.9 1.7 0.00 0.00 0.00 78 1008.4
20260504174959 53 264 0.9 0.9 0.00 0.00 0.00 76 1008.3
20260504174456 53 224 2.6 6.1 0.00 0.00 0.00 76 1008.1
20260504173953 53 220 3.5 5.2 0.00 0.00 0.00 77 1008.3
20260504173450 53 318 3.5 5.2 0.00 0.00 0.00 74 1008.2
20260504172947 53 196 2.6 2.6 0.00 0.00 0.00 73 1008.3
20260504172443 54 300 3.5 4.3 0.00 0.00 0.00 71 1008.0
20260504171940 54 163 1.7 1.7 0.00 0.00 0.00 74 1007.6
20260504171437 55 199 3.5 4.3 0.00 0.00 0.00 69 1007.5
20260504170934 55 248 5.2 7.0 0.00 0.00 0.00 67 1007.6
20260504170430 55 280 1.7 2.6 0.00 0.00 0.00 67 1007.5
20260504160349 57 119 2.6 2.6 0.00 0.00 0.00 57 1007.9
20260504150814 57 219 5.2 7.0 0.00 0.00 0.00 54 1008.6
20260504150310 57 202 4.3 4.3 0.00 0.00 0.00 55 1008.6